Location: 相模原市立博物館
(35.5593°N, 139.3931°E)
Time: 13:12:05
(UTC+09:00)

Envisat - Pass Details

Date: 26 October 2021
Orbit: 764 x 766 km, 98.2° (Epoch: 30 November)

Event Time Altitude Azimuth Distance (km) Brightness Sun altitude
Rises 03:45:42 0° 29° (NNE) 3,235 6.7 -27.6°
Reaches altitude 10° 03:48:32 10° 45° (NE) 2,304 6.1 -27.0°
Maximum altitude 03:52:23 22° 94° (E) 1,644 5.5 -26.2°
Drops below altitude 10° 03:56:12 10° 144° (SE) 2,292 5.8 -25.4°
Sets 03:59:00 0° 160° (SSE) 3,213 6.5 -24.9°
